This is the latest recevied weather packets stored in our database for station/object W7BTL. If no packets are shown the sender has not sent any weather packets the latest 10 day(s).
| Time | Temp. | Humidity | Pressure | Rain* | Wind** | Luminosity | Snow |
|---|---|---|---|---|---|---|---|
| 1778078661 | 16.11° C | 76% | 1018.4 hPa | 0 mm | - | 217 W/m² | - |
| 1778078360 | 15.56° C | 78% | 1018.3 hPa | 0 mm | - | 187 W/m² | - |
| 1778078056 | 15.56° C | 79% | 1018.4 hPa | 0 mm | - | 177 W/m² | - |
| 1778077754 | 15° C | 81% | 1018.5 hPa | 0 mm | - | 162 W/m² | - |
| 1778077452 | 15° C | 82% | 1018.5 hPa | 0 mm | - | 134 W/m² | - |
| 1778077150 | 14.44° C | 84% | 1018.6 hPa | 0 mm | - | 122 W/m² | - |
| 1778076848 | 13.89° C | 85% | 1018.3 hPa | 0 mm | - | 105 W/m² | - |
| 1778076546 | 13.33° C | 87% | 1018.2 hPa | 0 mm | - | 91 W/m² | - |
| 1778076242 | 12.78° C | 90% | 1018 hPa | 0 mm | - | 65 W/m² | - |
| 1778075939 | 12.22° C | 91% | 1018.1 hPa | 0 mm | - | 47 W/m² | - |
| 1778075636 | 12.22° C | 92% | 1018.2 hPa | 0 mm | - | 39 W/m² | - |
| 1778075332 | 11.67° C | 93% | 1018.2 hPa | 0 mm | - | 26 W/m² | - |
| 1778075029 | 11.67° C | 94% | 1018.1 hPa | 0 mm | - | 23 W/m² | - |
| 1778074726 | 11.11° C | 96% | 1018 hPa | 0 mm | - | 20 W/m² | - |
| 1778074422 | 11.11° C | 96% | 1018.2 hPa | 0 mm | - | 18 W/m² | - |
| 1778074119 | 10.56° C | 96% | 1018 hPa | 0 mm | - | 15 W/m² | - |
| 1778073816 | 10.56° C | 95% | 1018.1 hPa | 0 mm | - | 12 W/m² | - |
| 1778073515 | 10.56° C | 95% | 1017.8 hPa | 0 mm | - | 10 W/m² | - |
| 1778073210 | 10.56° C | 95% | 1018 hPa | 0 mm | - | 8 W/m² | - |
| 1778072908 | 10.56° C | 95% | 1017.8 hPa | 0 mm | - | 5 W/m² | - |
| 1778072604 | 10.56° C | 95% | 1017.9 hPa | 0 mm | - | 3 W/m² | - |
| 1778072302 | 10.56° C | 95% | 1017.8 hPa | 0 mm | - | 2 W/m² | - |
| 1778072000 | 10.56° C | 95% | 1017.8 hPa | 0 mm | - | 1 W/m² | - |
| 1778071699 | 10.56° C | 95% | 1017.6 hPa | 0 mm | - | 0 W/m² | - |
| 1778071395 | 10.56° C | 95% | 1017.6 hPa | 0 mm | - | 0 W/m² | - |
* Rain latest hour (hover to see other rain measurements)
** Current wind speed in m/s (hover to see current wind gust speed)